Year,Month,Day,Hour,Minute,Value (Times are PST for temperature in C)
2014,12,02,00,00,-0.80
2014,12,02,00,01,-0.80
2014,12,02,00,02,-0.90
2014,12,02,00,03,-0.90
2014,12,02,00,04,-0.90
2014,12,02,00,05,-1.00
2014,12,02,00,06,-1.00
2014,12,02,00,07,-1.00
2014,12,02,00,08,-1.10
2014,12,02,00,09,-1.10
2014,12,02,00,10,-1.10
2014,12,02,00,11,-1.10
2014,12,02,00,12,-1.10
2014,12,02,00,13,-1.10
2014,12,02,00,14,-1.20
2014,12,02,00,15,-1.20
2014,12,02,00,16,-1.20
2014,12,02,00,17,-1.20
2014,12,02,00,18,-1.30
2014,12,02,00,19,-1.30
2014,12,02,00,20,-1.30
2014,12,02,00,21,-1.30
2014,12,02,00,22,-1.30
2014,12,02,00,23,-1.30
2014,12,02,00,24,-1.40
2014,12,02,00,25,-1.40
2014,12,02,00,26,-1.40
2014,12,02,00,27,-1.50
2014,12,02,00,28,-1.50
2014,12,02,00,29,-1.50
2014,12,02,00,30,-1.60
2014,12,02,00,31,-1.60
2014,12,02,00,32,-1.60
2014,12,02,00,33,-1.60
2014,12,02,00,34,-1.70
2014,12,02,00,35,-1.70
2014,12,02,00,36,-1.70
2014,12,02,00,37,-1.70
2014,12,02,00,38,-1.80
2014,12,02,00,39,-1.80
2014,12,02,00,40,-1.80
2014,12,02,00,41,-1.80
2014,12,02,00,42,-1.80
2014,12,02,00,43,-1.90
2014,12,02,00,44,-1.90
2014,12,02,00,45,-1.90
2014,12,02,00,46,-1.90
2014,12,02,00,47,-1.90
2014,12,02,00,48,-1.90
2014,12,02,00,49,-1.90
2014,12,02,00,50,-1.90
2014,12,02,00,51,-2.00
2014,12,02,00,52,-2.00
2014,12,02,00,53,-2.00
2014,12,02,00,54,-1.90
2014,12,02,00,55,-1.90
2014,12,02,00,56,-1.90
2014,12,02,00,57,-1.90
2014,12,02,00,58,-1.90
2014,12,02,00,59,-1.90
2014,12,02,01,00,-1.90
2014,12,02,01,01,-1.90
2014,12,02,01,02,-1.90
2014,12,02,01,03,-1.90
2014,12,02,01,04,-2.00
2014,12,02,01,05,-2.00
2014,12,02,01,06,-2.00
2014,12,02,01,07,-2.00
2014,12,02,01,08,-2.10
2014,12,02,01,09,-2.10
2014,12,02,01,10,-2.10
2014,12,02,01,11,-2.10
2014,12,02,01,12,-2.10
2014,12,02,01,13,-2.20
2014,12,02,01,14,-2.20
2014,12,02,01,15,-2.20
2014,12,02,01,16,-2.20
2014,12,02,01,17,-2.20
2014,12,02,01,18,-2.20
2014,12,02,01,19,-2.20
2014,12,02,01,20,-2.20
2014,12,02,01,21,-2.20
2014,12,02,01,22,-2.20
2014,12,02,01,23,-2.20
2014,12,02,01,24,-2.30
2014,12,02,01,25,-2.30
2014,12,02,01,26,-2.30
2014,12,02,01,27,-2.30
2014,12,02,01,28,-2.30
2014,12,02,01,29,-2.30
2014,12,02,01,30,-2.30
2014,12,02,01,31,-2.30
2014,12,02,01,32,-2.30
2014,12,02,01,33,-2.30
2014,12,02,01,34,-2.30
2014,12,02,01,35,-2.30
2014,12,02,01,36,-2.30
2014,12,02,01,37,-2.30
2014,12,02,01,38,-2.30
2014,12,02,01,39,-2.30
2014,12,02,01,40,-2.30
2014,12,02,01,41,-2.30
2014,12,02,01,42,-2.30
2014,12,02,01,43,-2.30
2014,12,02,01,44,-2.30
2014,12,02,01,45,-2.30
2014,12,02,01,46,-2.30
2014,12,02,01,47,-2.30
2014,12,02,01,48,-2.30
2014,12,02,01,49,-2.30
2014,12,02,01,50,-2.40
2014,12,02,01,51,-2.40
2014,12,02,01,52,-2.40
2014,12,02,01,53,-2.30
2014,12,02,01,54,-2.30
2014,12,02,01,55,-2.30
2014,12,02,01,56,-2.20
2014,12,02,01,57,-2.20
2014,12,02,01,58,-2.20
2014,12,02,01,59,-2.20
2014,12,02,02,00,-2.20
2014,12,02,02,01,-2.20
2014,12,02,02,02,-2.20
2014,12,02,02,03,-2.20
2014,12,02,02,04,-2.20
2014,12,02,02,05,-2.20
2014,12,02,02,06,-2.20
2014,12,02,02,07,-2.20
2014,12,02,02,08,-2.20
2014,12,02,02,09,-2.20
2014,12,02,02,10,-2.20
2014,12,02,02,11,-2.30
2014,12,02,02,12,-2.30
2014,12,02,02,13,-2.30
2014,12,02,02,14,-2.40
2014,12,02,02,15,-2.40
2014,12,02,02,16,-2.40
2014,12,02,02,17,-2.50
2014,12,02,02,18,-2.50
2014,12,02,02,19,-2.50
2014,12,02,02,20,-2.50
2014,12,02,02,21,-2.50
2014,12,02,02,22,-2.50
2014,12,02,02,23,-2.60
2014,12,02,02,24,-2.60
2014,12,02,02,25,-2.60
2014,12,02,02,26,-2.60
2014,12,02,02,27,-2.60
2014,12,02,02,28,-2.60
2014,12,02,02,29,-2.60
2014,12,02,02,30,-2.70
2014,12,02,02,31,-2.70
2014,12,02,02,32,-2.70
2014,12,02,02,33,-2.70
2014,12,02,02,34,-2.70
2014,12,02,02,35,-2.70
2014,12,02,02,36,-2.70
2014,12,02,02,37,-2.70
2014,12,02,02,38,-2.70
2014,12,02,02,39,-2.60
2014,12,02,02,40,-2.60
2014,12,02,02,41,-2.60
2014,12,02,02,42,-2.60
2014,12,02,02,43,-2.60
2014,12,02,02,44,-2.60
2014,12,02,02,45,-2.60
2014,12,02,02,46,-2.60
2014,12,02,02,47,-2.60
2014,12,02,02,48,-2.70
2014,12,02,02,49,-2.70
2014,12,02,02,50,-2.70
2014,12,02,02,51,-2.70
2014,12,02,02,52,-2.80
2014,12,02,02,53,-2.80
2014,12,02,02,54,-2.80
2014,12,02,02,55,-2.90
2014,12,02,02,56,-2.90
2014,12,02,02,57,-2.90
2014,12,02,02,58,-2.90
2014,12,02,02,59,-3.00
2014,12,02,03,00,-3.00
2014,12,02,03,01,-3.00
2014,12,02,03,02,-3.00
2014,12,02,03,03,-3.00
2014,12,02,03,04,-3.10
2014,12,02,03,05,-3.10
2014,12,02,03,06,-3.10
2014,12,02,03,07,-3.10
2014,12,02,03,08,-3.10
2014,12,02,03,09,-3.10
2014,12,02,03,10,-3.10
2014,12,02,03,11,-3.10
2014,12,02,03,12,-3.10
2014,12,02,03,13,-3.20
2014,12,02,03,14,-3.20
2014,12,02,03,15,-3.20
2014,12,02,03,16,-3.20
2014,12,02,03,17,-3.20
2014,12,02,03,18,-3.20
2014,12,02,03,19,-3.20
2014,12,02,03,20,-3.20
2014,12,02,03,21,-3.20
2014,12,02,03,22,-3.20
2014,12,02,03,23,-3.20
2014,12,02,03,24,-3.20
2014,12,02,03,25,-3.20
2014,12,02,03,26,-3.20
2014,12,02,03,27,-3.20
2014,12,02,03,28,-3.20
2014,12,02,03,29,-3.20
2014,12,02,03,30,-3.20
2014,12,02,03,31,-3.20
2014,12,02,03,32,-3.20
2014,12,02,03,33,-3.20
2014,12,02,03,34,-3.20
2014,12,02,03,35,-3.20
2014,12,02,03,36,-3.20
2014,12,02,03,37,-3.30
2014,12,02,03,38,-3.30
2014,12,02,03,39,-3.30
2014,12,02,03,40,-3.40
2014,12,02,03,41,-3.40
2014,12,02,03,42,-3.40
2014,12,02,03,43,-3.40
2014,12,02,03,44,-3.40
2014,12,02,03,45,-3.40
2014,12,02,03,46,-3.50
2014,12,02,03,47,-3.50
2014,12,02,03,48,-3.50
2014,12,02,03,49,-3.50
2014,12,02,03,50,-3.50
2014,12,02,03,51,-3.60
2014,12,02,03,52,-3.60
2014,12,02,03,53,-3.60
2014,12,02,03,54,-3.60
2014,12,02,03,55,-3.60
2014,12,02,03,56,-3.60
2014,12,02,03,57,-3.50
2014,12,02,03,58,-3.50
2014,12,02,03,59,-3.50
2014,12,02,04,00,-3.50
2014,12,02,04,01,-3.40
2014,12,02,04,02,-3.40
2014,12,02,04,03,-3.40
2014,12,02,04,04,-3.40
2014,12,02,04,05,-3.40
2014,12,02,04,06,-3.30
2014,12,02,04,07,-3.30
2014,12,02,04,08,-3.30
2014,12,02,04,09,-3.20
2014,12,02,04,10,-3.20
2014,12,02,04,11,-3.20
2014,12,02,04,12,-3.10
2014,12,02,04,13,-3.10
2014,12,02,04,14,-3.10
2014,12,02,04,15,-3.10
2014,12,02,04,16,-3.00
2014,12,02,04,17,-3.00
2014,12,02,04,18,-2.90
2014,12,02,04,19,-2.80
2014,12,02,04,20,-2.80
2014,12,02,04,21,-2.80
2014,12,02,04,22,-2.70
2014,12,02,04,23,-2.70
2014,12,02,04,24,-2.70
2014,12,02,04,25,-2.70
2014,12,02,04,26,-2.70
2014,12,02,04,27,-2.60
2014,12,02,04,28,-2.60
2014,12,02,04,29,-2.60
2014,12,02,04,30,-2.60
2014,12,02,04,31,-2.60
2014,12,02,04,32,-2.60
2014,12,02,04,33,-2.60
2014,12,02,04,34,-2.70
2014,12,02,04,35,-2.70
2014,12,02,04,36,-2.70
2014,12,02,04,37,-2.70
2014,12,02,04,38,-2.70
2014,12,02,04,39,-2.70
2014,12,02,04,40,-2.70
2014,12,02,04,41,-2.70
2014,12,02,04,42,-2.70
2014,12,02,04,43,-2.70
2014,12,02,04,44,-2.70
2014,12,02,04,45,-2.70
2014,12,02,04,46,-2.70
2014,12,02,04,47,-2.70
2014,12,02,04,48,-2.70
2014,12,02,04,49,-2.70
2014,12,02,04,50,-2.70
2014,12,02,04,51,-2.70
2014,12,02,04,52,-2.70
2014,12,02,04,53,-2.70
2014,12,02,04,54,-2.70
2014,12,02,04,55,-2.70
2014,12,02,04,56,-2.70
2014,12,02,04,57,-2.80
2014,12,02,04,58,-2.70
2014,12,02,04,59,-2.80
2014,12,02,05,00,-2.80
2014,12,02,05,01,-2.80
2014,12,02,05,02,-2.80
2014,12,02,05,03,-2.80
2014,12,02,05,04,-2.80
2014,12,02,05,05,-2.90
2014,12,02,05,06,-2.90
2014,12,02,05,07,-2.90
2014,12,02,05,08,-3.00
2014,12,02,05,09,-3.00
2014,12,02,05,10,-3.10
2014,12,02,05,11,-3.10
2014,12,02,05,12,-3.10
2014,12,02,05,13,-3.20
2014,12,02,05,14,-3.20
2014,12,02,05,15,-3.20
2014,12,02,05,16,-3.20
2014,12,02,05,17,-3.20
2014,12,02,05,18,-3.30
2014,12,02,05,19,-3.30
2014,12,02,05,20,-3.30
2014,12,02,05,21,-3.30
2014,12,02,05,22,-3.30
2014,12,02,05,23,-3.30
2014,12,02,05,24,-3.30
2014,12,02,05,25,-3.30
2014,12,02,05,26,-3.30
2014,12,02,05,27,-3.30
2014,12,02,05,28,-3.20
2014,12,02,05,29,-3.20
2014,12,02,05,30,-3.20
2014,12,02,05,31,-3.20
2014,12,02,05,32,-3.20
2014,12,02,05,33,-3.30
2014,12,02,05,34,-3.30
2014,12,02,05,35,-3.30
2014,12,02,05,36,-3.30
2014,12,02,05,37,-3.40
2014,12,02,05,38,-3.30
2014,12,02,05,39,-3.40
2014,12,02,05,40,-3.40
2014,12,02,05,41,-3.30
2014,12,02,05,42,-3.30
2014,12,02,05,43,-3.30
2014,12,02,05,44,-3.30
2014,12,02,05,45,-3.30
2014,12,02,05,46,-3.30
2014,12,02,05,47,-3.20
2014,12,02,05,48,-3.20
2014,12,02,05,49,-3.20
2014,12,02,05,50,-3.20
2014,12,02,05,51,-3.30
2014,12,02,05,52,-3.30
2014,12,02,05,53,-3.30
2014,12,02,05,54,-3.30
2014,12,02,05,55,-3.20
2014,12,02,05,56,-3.20
2014,12,02,05,57,-3.10
2014,12,02,05,58,-3.10
2014,12,02,05,59,-3.10
2014,12,02,06,00,-3.10
2014,12,02,06,01,-3.10
2014,12,02,06,02,-3.10
2014,12,02,06,03,-3.10
2014,12,02,06,04,-3.10
2014,12,02,06,05,-3.20
2014,12,02,06,06,-3.20
2014,12,02,06,07,-3.20
2014,12,02,06,08,-3.30
2014,12,02,06,09,-3.30
2014,12,02,06,10,-3.40
2014,12,02,06,11,-3.40
2014,12,02,06,12,-3.50
2014,12,02,06,13,-3.50
2014,12,02,06,14,-3.60
2014,12,02,06,15,-3.60
2014,12,02,06,16,-3.60
2014,12,02,06,17,-3.60
2014,12,02,06,18,-3.60
2014,12,02,06,19,-3.70
2014,12,02,06,20,-3.70
2014,12,02,06,21,-3.70
2014,12,02,06,22,-3.70
2014,12,02,06,23,-3.70
2014,12,02,06,24,-3.70
2014,12,02,06,25,-3.70
2014,12,02,06,26,-3.70
2014,12,02,06,27,-3.80
2014,12,02,06,28,-3.80
2014,12,02,06,29,-3.80
2014,12,02,06,30,-3.80
2014,12,02,06,31,-3.80
2014,12,02,06,32,-3.80
2014,12,02,06,33,-3.80
2014,12,02,06,34,-3.90
2014,12,02,06,35,-3.90
2014,12,02,06,36,-3.90
2014,12,02,06,37,-3.90
2014,12,02,06,38,-3.90
2014,12,02,06,39,-3.90
2014,12,02,06,40,-3.90
2014,12,02,06,41,-3.90
2014,12,02,06,42,-3.90
2014,12,02,06,43,-4.00
2014,12,02,06,44,-4.00
2014,12,02,06,45,-4.00
2014,12,02,06,46,-4.00
2014,12,02,06,47,-4.10
2014,12,02,06,48,-4.10
2014,12,02,06,49,-4.10
2014,12,02,06,50,-4.10
2014,12,02,06,51,-4.10
2014,12,02,06,52,-4.10
2014,12,02,06,53,-4.10
2014,12,02,06,54,-4.10
2014,12,02,06,55,-4.20
2014,12,02,06,56,-4.10
2014,12,02,06,57,-4.10
2014,12,02,06,58,-4.10
2014,12,02,06,59,-4.10
2014,12,02,07,00,-4.10
2014,12,02,07,01,-4.10
2014,12,02,07,02,-4.00
2014,12,02,07,03,-4.00
2014,12,02,07,04,-4.00
2014,12,02,07,05,-3.90
2014,12,02,07,06,-3.90
2014,12,02,07,07,-3.90
2014,12,02,07,08,-3.80
2014,12,02,07,09,-3.80
2014,12,02,07,10,-3.70
2014,12,02,07,11,-3.60
2014,12,02,07,12,-3.50
2014,12,02,07,13,-3.40
2014,12,02,07,14,-3.30
2014,12,02,07,15,-3.20
2014,12,02,07,16,-3.20
2014,12,02,07,17,-3.20
2014,12,02,07,18,-3.10
2014,12,02,07,19,-3.00
2014,12,02,07,20,-3.00
2014,12,02,07,21,-2.90
2014,12,02,07,22,-2.90
2014,12,02,07,23,-2.90
2014,12,02,07,24,-2.90
2014,12,02,07,25,-2.90
2014,12,02,07,26,-2.90
2014,12,02,07,27,-2.90
2014,12,02,07,28,-2.80
2014,12,02,07,29,-2.80
2014,12,02,07,30,-2.80
2014,12,02,07,31,-2.80
2014,12,02,07,32,-2.80
2014,12,02,07,33,-2.70
2014,12,02,07,34,-2.70
2014,12,02,07,35,-2.70
2014,12,02,07,36,-2.70
2014,12,02,07,37,-2.70
2014,12,02,07,38,-2.70
2014,12,02,07,39,-2.70
2014,12,02,07,40,-2.80
2014,12,02,07,41,-2.80
2014,12,02,07,42,-2.80
2014,12,02,07,43,-2.80
2014,12,02,07,44,-2.90
2014,12,02,07,45,-2.90
2014,12,02,07,46,-2.90
2014,12,02,07,47,-2.90
2014,12,02,07,48,-2.90
2014,12,02,07,49,-2.90
2014,12,02,07,50,-2.90
2014,12,02,07,51,-2.90
2014,12,02,07,52,-3.00
2014,12,02,07,53,-3.00
2014,12,02,07,54,-3.00
2014,12,02,07,55,-3.00
2014,12,02,07,56,-3.00
2014,12,02,07,57,-3.00
2014,12,02,07,58,-2.90
2014,12,02,07,59,-2.90
2014,12,02,08,00,-2.90
2014,12,02,08,01,-2.90
2014,12,02,08,02,-2.90
2014,12,02,08,03,-2.90
2014,12,02,08,04,-2.80
2014,12,02,08,05,-2.80
2014,12,02,08,06,-2.80
2014,12,02,08,07,-2.80
2014,12,02,08,08,-2.70
2014,12,02,08,09,-2.70
2014,12,02,08,10,-2.70
2014,12,02,08,11,-2.60
2014,12,02,08,12,-2.60
2014,12,02,08,13,-2.60
2014,12,02,08,14,-2.60
2014,12,02,08,15,-2.50
2014,12,02,08,16,-2.50
2014,12,02,08,17,-2.50
2014,12,02,08,18,-2.40
2014,12,02,08,19,-2.40
2014,12,02,08,20,-2.40
2014,12,02,08,21,-2.40
2014,12,02,08,22,-2.40
2014,12,02,08,23,-2.30
2014,12,02,08,24,-2.30
2014,12,02,08,25,-2.30
2014,12,02,08,26,-2.30
2014,12,02,08,27,-2.20
2014,12,02,08,28,-2.20
2014,12,02,08,29,-2.10
2014,12,02,08,30,-2.10
2014,12,02,08,31,-2.10
2014,12,02,08,32,-2.00
2014,12,02,08,33,-2.00
2014,12,02,08,34,-1.90
2014,12,02,08,35,-1.90
2014,12,02,08,36,-1.80
2014,12,02,08,37,-1.80
2014,12,02,08,38,-1.70
2014,12,02,08,39,-1.70
2014,12,02,08,40,-1.70
2014,12,02,08,41,-1.60
2014,12,02,08,42,-1.60
2014,12,02,08,43,-1.60
2014,12,02,08,44,-1.50
2014,12,02,08,45,-1.50
2014,12,02,08,46,-1.50
2014,12,02,08,47,-1.40
2014,12,02,08,48,-1.40
2014,12,02,08,49,-1.30
2014,12,02,08,50,-1.30
2014,12,02,08,51,-1.30
2014,12,02,08,52,-1.30
2014,12,02,08,53,-1.30
2014,12,02,08,54,-1.30
2014,12,02,08,55,-1.20
2014,12,02,08,56,-1.20
2014,12,02,08,57,-1.20
2014,12,02,08,58,-1.20
2014,12,02,08,59,-1.10
2014,12,02,09,00,-1.10
2014,12,02,09,01,-1.10
2014,12,02,09,02,-1.00
2014,12,02,09,03,-1.00
2014,12,02,09,04,-1.00
2014,12,02,09,05,-0.90
2014,12,02,09,06,-0.90
2014,12,02,09,07,-0.90
2014,12,02,09,08,-0.90
2014,12,02,09,09,-0.90
2014,12,02,09,10,-0.80
2014,12,02,09,11,-0.80
2014,12,02,09,12,-0.80
2014,12,02,09,13,-0.70
2014,12,02,09,14,-0.70
2014,12,02,09,15,-0.60
2014,12,02,09,16,-0.60
2014,12,02,09,17,-0.60
2014,12,02,09,18,-0.50
2014,12,02,09,19,-0.50
2014,12,02,09,20,-0.50
2014,12,02,09,21,-0.40
2014,12,02,09,22,-0.40
2014,12,02,09,23,-0.30
2014,12,02,09,24,-0.30
2014,12,02,09,25,-0.30
2014,12,02,09,26,-0.20
2014,12,02,09,27,-0.20
2014,12,02,09,28,-0.20
2014,12,02,09,29,-0.20
2014,12,02,09,30,-0.10
2014,12,02,09,31,-0.10
2014,12,02,09,32,0.00
2014,12,02,09,33,0.00
2014,12,02,09,34,0.10
2014,12,02,09,35,0.10
2014,12,02,09,36,0.20
2014,12,02,09,37,0.20
2014,12,02,09,38,0.30
2014,12,02,09,39,0.30
2014,12,02,09,40,0.30
2014,12,02,09,41,0.40
2014,12,02,09,42,0.40
2014,12,02,09,43,0.50
2014,12,02,09,44,0.50
2014,12,02,09,45,0.50
2014,12,02,09,46,0.60
2014,12,02,09,47,0.60
2014,12,02,09,48,0.70
2014,12,02,09,49,0.70
2014,12,02,09,50,0.70
2014,12,02,09,51,0.80
2014,12,02,09,52,0.80
2014,12,02,09,53,0.80
2014,12,02,09,54,0.90
2014,12,02,09,55,0.90
2014,12,02,09,56,1.00
2014,12,02,09,57,1.10
2014,12,02,09,58,1.10
2014,12,02,09,59,1.10
2014,12,02,10,00,1.20
2014,12,02,10,01,1.20
2014,12,02,10,02,1.20
2014,12,02,10,03,1.30
2014,12,02,10,04,1.30
2014,12,02,10,05,1.30
2014,12,02,10,06,1.30
2014,12,02,10,07,1.30
2014,12,02,10,08,1.30
2014,12,02,10,09,1.30
2014,12,02,10,10,1.30
2014,12,02,10,11,1.40
2014,12,02,10,12,1.40
2014,12,02,10,13,1.50
2014,12,02,10,14,1.50
2014,12,02,10,15,1.60
2014,12,02,10,16,1.60
2014,12,02,10,17,1.60
2014,12,02,10,18,1.70
2014,12,02,10,19,1.70
2014,12,02,10,20,1.70
2014,12,02,10,21,1.70
2014,12,02,10,22,1.80
2014,12,02,10,23,1.80
2014,12,02,10,24,1.80
2014,12,02,10,25,1.80
2014,12,02,10,26,1.80
2014,12,02,10,27,1.80
2014,12,02,10,28,1.80
2014,12,02,10,29,1.80
2014,12,02,10,30,1.90
2014,12,02,10,31,1.90
2014,12,02,10,32,1.90
2014,12,02,10,33,1.90
2014,12,02,10,34,2.00
2014,12,02,10,35,2.00
2014,12,02,10,36,2.00
2014,12,02,10,37,2.10
2014,12,02,10,38,2.10
2014,12,02,10,39,2.10
2014,12,02,10,40,2.10
2014,12,02,10,41,2.10
2014,12,02,10,42,2.10
2014,12,02,10,43,2.20
2014,12,02,10,44,2.20
2014,12,02,10,45,2.20
2014,12,02,10,46,2.20
2014,12,02,10,47,2.20
2014,12,02,10,48,2.30
2014,12,02,10,49,2.30
2014,12,02,10,50,2.30
2014,12,02,10,51,2.30
2014,12,02,10,52,2.30
2014,12,02,10,53,2.40
2014,12,02,10,54,2.40
2014,12,02,10,55,2.40
2014,12,02,10,56,2.40
2014,12,02,10,57,2.40
2014,12,02,10,58,2.40
2014,12,02,10,59,2.40
2014,12,02,11,00,2.40
2014,12,02,11,01,2.40
2014,12,02,11,02,2.40
2014,12,02,11,03,2.40
2014,12,02,11,04,2.40
2014,12,02,11,05,2.50
2014,12,02,11,06,2.50
2014,12,02,11,07,2.50
2014,12,02,11,08,2.50
2014,12,02,11,09,2.60
2014,12,02,11,10,2.60
2014,12,02,11,11,2.60
2014,12,02,11,12,2.60
2014,12,02,11,13,2.60
2014,12,02,11,14,2.70
2014,12,02,11,15,2.70
2014,12,02,11,16,2.70
2014,12,02,11,17,2.70
2014,12,02,11,18,2.70
2014,12,02,11,19,2.70
2014,12,02,11,20,2.70
2014,12,02,11,21,2.80
2014,12,02,11,22,2.80
2014,12,02,11,23,2.80
2014,12,02,11,24,2.80
2014,12,02,11,25,2.80
2014,12,02,11,26,2.80
2014,12,02,11,27,2.80
2014,12,02,11,28,2.80
2014,12,02,11,29,2.80
2014,12,02,11,30,2.80
2014,12,02,11,31,2.70
2014,12,02,11,32,2.70
2014,12,02,11,33,2.70
2014,12,02,11,34,2.70
2014,12,02,11,35,2.80
2014,12,02,11,36,2.80
2014,12,02,11,37,2.80
2014,12,02,11,38,2.80
2014,12,02,11,39,2.80
2014,12,02,11,40,2.80
2014,12,02,11,41,2.80
2014,12,02,11,42,2.80
2014,12,02,11,43,2.90
2014,12,02,11,44,2.90
2014,12,02,11,45,2.90
2014,12,02,11,46,2.90
2014,12,02,11,47,2.90
2014,12,02,11,48,2.90
2014,12,02,11,49,2.90
2014,12,02,11,50,2.90
2014,12,02,11,51,2.90
2014,12,02,11,52,2.90
2014,12,02,11,53,2.90
2014,12,02,11,54,2.90
2014,12,02,11,55,2.90
2014,12,02,11,56,2.90
2014,12,02,11,57,2.90
2014,12,02,11,58,3.00
2014,12,02,11,59,3.00
2014,12,02,12,00,3.10
2014,12,02,12,01,3.10
2014,12,02,12,02,3.10
2014,12,02,12,03,3.10
2014,12,02,12,04,3.10
2014,12,02,12,05,3.10
2014,12,02,12,06,3.10
2014,12,02,12,07,3.10
2014,12,02,12,08,3.10
2014,12,02,12,09,3.10
2014,12,02,12,10,3.10
2014,12,02,12,11,3.20
2014,12,02,12,12,3.20
2014,12,02,12,13,3.20
2014,12,02,12,14,3.20
2014,12,02,12,15,3.20
2014,12,02,12,16,3.20
2014,12,02,12,17,3.20
2014,12,02,12,18,3.20
2014,12,02,12,19,3.30
2014,12,02,12,20,3.30
2014,12,02,12,21,3.30
2014,12,02,12,22,3.30
2014,12,02,12,23,3.30
2014,12,02,12,24,3.30
2014,12,02,12,25,3.30
2014,12,02,12,26,3.30
2014,12,02,12,27,3.40
2014,12,02,12,28,3.40
2014,12,02,12,29,3.40
2014,12,02,12,30,3.40
2014,12,02,12,31,3.50
2014,12,02,12,32,3.50
2014,12,02,12,33,3.50
2014,12,02,12,34,3.50
2014,12,02,12,35,3.50
2014,12,02,12,36,3.50
2014,12,02,12,37,3.50
2014,12,02,12,38,3.50
2014,12,02,12,39,3.50
2014,12,02,12,40,3.50
2014,12,02,12,41,3.50
2014,12,02,12,42,3.50
2014,12,02,12,43,3.40
2014,12,02,12,44,3.40
2014,12,02,12,45,3.40
2014,12,02,12,46,3.40
2014,12,02,12,47,3.50
2014,12,02,12,48,3.50
2014,12,02,12,49,3.50
2014,12,02,12,50,3.50
2014,12,02,12,51,3.60
2014,12,02,12,52,3.60
2014,12,02,12,53,3.60
2014,12,02,12,54,3.60
2014,12,02,12,55,3.60
2014,12,02,12,56,3.60
2014,12,02,12,57,3.60
2014,12,02,12,58,3.60
2014,12,02,12,59,3.60
2014,12,02,13,00,3.60
2014,12,02,13,01,3.60
2014,12,02,13,02,3.70
2014,12,02,13,03,3.70
2014,12,02,13,04,3.70
2014,12,02,13,05,3.70
2014,12,02,13,06,3.70
2014,12,02,13,07,3.70
2014,12,02,13,08,3.70
2014,12,02,13,09,3.70
2014,12,02,13,10,3.70
2014,12,02,13,11,3.70
2014,12,02,13,12,3.80
2014,12,02,13,13,3.80
2014,12,02,13,14,3.80
2014,12,02,13,15,3.80
2014,12,02,13,16,3.80
2014,12,02,13,17,3.80
2014,12,02,13,18,3.80
2014,12,02,13,19,3.80
2014,12,02,13,20,3.90
2014,12,02,13,21,3.90
2014,12,02,13,22,3.90
2014,12,02,13,23,3.90
2014,12,02,13,24,3.90
2014,12,02,13,25,4.00
2014,12,02,13,26,4.00
2014,12,02,13,27,4.10
2014,12,02,13,28,4.10
2014,12,02,13,29,4.10
2014,12,02,13,30,4.10
2014,12,02,13,31,4.10
2014,12,02,13,32,4.10
2014,12,02,13,33,4.10
2014,12,02,13,34,4.10
2014,12,02,13,35,4.10
2014,12,02,13,36,4.10
2014,12,02,13,37,4.10
2014,12,02,13,38,4.10
2014,12,02,13,39,4.10
2014,12,02,13,40,4.10
2014,12,02,13,41,4.10
2014,12,02,13,42,4.10
2014,12,02,13,43,4.10
2014,12,02,13,44,4.10
2014,12,02,13,45,4.20
2014,12,02,13,46,4.20
2014,12,02,13,47,4.20
2014,12,02,13,48,4.20
2014,12,02,13,49,4.10
2014,12,02,13,50,4.10
2014,12,02,13,51,4.10
2014,12,02,13,52,4.10
2014,12,02,13,53,4.10
2014,12,02,13,54,4.10
2014,12,02,13,55,4.10
2014,12,02,13,56,4.10
2014,12,02,13,57,4.10
2014,12,02,13,58,4.10
2014,12,02,13,59,4.10
2014,12,02,14,00,4.10
2014,12,02,14,01,4.10
2014,12,02,14,02,4.10
2014,12,02,14,03,4.10
2014,12,02,14,04,4.20
2014,12,02,14,05,4.20
2014,12,02,14,06,4.20
2014,12,02,14,07,4.20
2014,12,02,14,08,4.20
2014,12,02,14,09,4.20
2014,12,02,14,10,4.10
2014,12,02,14,11,4.10
2014,12,02,14,12,4.10
2014,12,02,14,13,4.10
2014,12,02,14,14,4.10
2014,12,02,14,15,4.10
2014,12,02,14,16,4.10
2014,12,02,14,17,4.10
2014,12,02,14,18,4.10
2014,12,02,14,19,4.10
2014,12,02,14,20,4.10
2014,12,02,14,21,4.10
2014,12,02,14,22,4.10
2014,12,02,14,23,4.10
2014,12,02,14,24,4.00
2014,12,02,14,25,4.00
2014,12,02,14,26,4.00
2014,12,02,14,27,4.00
2014,12,02,14,28,4.00
2014,12,02,14,29,4.00
2014,12,02,14,30,4.00
2014,12,02,14,31,4.00
2014,12,02,14,32,4.00
2014,12,02,14,33,4.00
2014,12,02,14,34,4.00
2014,12,02,14,35,4.00
2014,12,02,14,36,4.00
2014,12,02,14,37,4.10
2014,12,02,14,38,4.10
2014,12,02,14,39,4.10
2014,12,02,14,40,4.10
2014,12,02,14,41,4.10
2014,12,02,14,42,4.10
2014,12,02,14,43,4.10
2014,12,02,14,44,4.10
2014,12,02,14,45,4.10
2014,12,02,14,46,4.10
2014,12,02,14,47,4.10
2014,12,02,14,48,4.10
2014,12,02,14,49,4.10
2014,12,02,14,50,4.10
2014,12,02,14,51,4.10
2014,12,02,14,52,4.10
2014,12,02,14,53,4.10
2014,12,02,14,54,4.10
2014,12,02,14,55,4.10
2014,12,02,14,56,4.10
2014,12,02,14,57,4.10
2014,12,02,14,58,4.10
2014,12,02,14,59,4.10
2014,12,02,15,00,4.10
2014,12,02,15,01,4.00
2014,12,02,15,02,4.00
2014,12,02,15,03,4.00
2014,12,02,15,04,3.90
2014,12,02,15,05,3.90
2014,12,02,15,06,3.90
2014,12,02,15,07,3.90
2014,12,02,15,08,3.80
2014,12,02,15,09,3.80
2014,12,02,15,10,3.80
2014,12,02,15,11,3.80
2014,12,02,15,12,3.80
2014,12,02,15,13,3.80
2014,12,02,15,14,3.70
2014,12,02,15,15,3.70
2014,12,02,15,16,3.70
2014,12,02,15,17,3.70
2014,12,02,15,18,3.70
2014,12,02,15,19,3.70
2014,12,02,15,20,3.60
2014,12,02,15,21,3.60
2014,12,02,15,22,3.60
2014,12,02,15,23,3.60
2014,12,02,15,24,3.60
2014,12,02,15,25,3.50
2014,12,02,15,26,3.50
2014,12,02,15,27,3.50
2014,12,02,15,28,3.50
2014,12,02,15,29,3.40
2014,12,02,15,30,3.40
2014,12,02,15,31,3.40
2014,12,02,15,32,3.40
2014,12,02,15,33,3.30
2014,12,02,15,34,3.30
2014,12,02,15,35,3.30
2014,12,02,15,36,3.30
2014,12,02,15,37,3.30
2014,12,02,15,38,3.30
2014,12,02,15,39,3.30
2014,12,02,15,40,3.30
2014,12,02,15,41,3.30
2014,12,02,15,42,3.30
2014,12,02,15,43,3.30
2014,12,02,15,44,3.30
2014,12,02,15,45,3.30
2014,12,02,15,46,3.30
2014,12,02,15,47,3.30
2014,12,02,15,48,3.20
2014,12,02,15,49,3.20
2014,12,02,15,50,3.20
2014,12,02,15,51,3.20
2014,12,02,15,52,3.20
2014,12,02,15,53,3.20
2014,12,02,15,54,3.20
2014,12,02,15,55,3.10
2014,12,02,15,56,3.10
2014,12,02,15,57,3.10
2014,12,02,15,58,3.10
2014,12,02,15,59,3.10
2014,12,02,16,00,3.10
2014,12,02,16,01,3.10
2014,12,02,16,02,3.10
2014,12,02,16,03,3.10
2014,12,02,16,04,3.10
2014,12,02,16,05,3.10
2014,12,02,16,06,3.10
2014,12,02,16,07,3.00
2014,12,02,16,08,3.00
2014,12,02,16,09,3.00
2014,12,02,16,10,3.00
2014,12,02,16,11,3.00
2014,12,02,16,12,2.90
2014,12,02,16,13,2.90
2014,12,02,16,14,2.90
2014,12,02,16,15,2.90
2014,12,02,16,16,2.90
2014,12,02,16,17,2.90
2014,12,02,16,18,2.90
2014,12,02,16,19,2.80
2014,12,02,16,20,2.80
2014,12,02,16,21,2.80
2014,12,02,16,22,2.80
2014,12,02,16,23,2.80
2014,12,02,16,24,2.80
2014,12,02,16,25,2.80
2014,12,02,16,26,2.70
2014,12,02,16,27,2.70
2014,12,02,16,28,2.70
2014,12,02,16,29,2.70
2014,12,02,16,30,2.70
2014,12,02,16,31,2.60
2014,12,02,16,32,2.60
2014,12,02,16,33,2.60
2014,12,02,16,34,2.60
2014,12,02,16,35,2.60
2014,12,02,16,36,2.60
2014,12,02,16,37,2.50
2014,12,02,16,38,2.50
2014,12,02,16,39,2.50
2014,12,02,16,40,2.50
2014,12,02,16,41,2.50
2014,12,02,16,42,2.40
2014,12,02,16,43,2.40
2014,12,02,16,44,2.30
2014,12,02,16,45,2.30
2014,12,02,16,46,2.30
2014,12,02,16,47,2.20
2014,12,02,16,48,2.20
2014,12,02,16,49,2.20
2014,12,02,16,50,2.20
2014,12,02,16,51,2.20
2014,12,02,16,52,2.20
2014,12,02,16,53,2.20
2014,12,02,16,54,2.20
2014,12,02,16,55,2.20
2014,12,02,16,56,2.30
2014,12,02,16,57,2.20
2014,12,02,16,58,2.30
2014,12,02,16,59,2.30
2014,12,02,17,00,2.30
2014,12,02,17,01,2.30
2014,12,02,17,02,2.30
2014,12,02,17,03,2.30
2014,12,02,17,04,2.20
2014,12,02,17,05,2.30
2014,12,02,17,06,2.30
2014,12,02,17,07,2.30
2014,12,02,17,08,2.30
2014,12,02,17,09,2.30
2014,12,02,17,10,2.30
2014,12,02,17,11,2.30
2014,12,02,17,12,2.30
2014,12,02,17,13,2.30
2014,12,02,17,14,2.40
2014,12,02,17,15,2.40
2014,12,02,17,16,2.40
2014,12,02,17,17,2.40
2014,12,02,17,18,2.40
2014,12,02,17,19,2.40
2014,12,02,17,20,2.40
2014,12,02,17,21,2.40
2014,12,02,17,22,2.40
2014,12,02,17,23,2.40
2014,12,02,17,24,2.40
2014,12,02,17,25,2.40
2014,12,02,17,26,2.40
2014,12,02,17,27,2.40
2014,12,02,17,28,2.40
2014,12,02,17,29,2.30
2014,12,02,17,30,2.30
2014,12,02,17,31,2.30
2014,12,02,17,32,2.30
2014,12,02,17,33,2.30
2014,12,02,17,34,2.30
2014,12,02,17,35,2.30
2014,12,02,17,36,2.30
2014,12,02,17,37,2.30
2014,12,02,17,38,2.30
2014,12,02,17,39,2.30
2014,12,02,17,40,2.30